Regional Weather Roundup
Issued by NWS Grand Forks, ND

Home | Current Version | Previous Version | Text Only | Print | Product List | Glossary Off
Versions: 1 2 3 4 5 6 7 8 9 10 11 12 13 14 15 16 17 18 19 20 21 22 23 24 25 26 27 28 29 30 31 32 33 34 35 36 37 38 39 40 41 42 43 44 45 46 47 48 49 50

000
ASUS43 KFGF 061810
RWRFGF
PRAIRIE TO PINES  WEATHER ROUNDUP
NATIONAL WEATHER SERVICE EASTERN NORTH DAKOTA/GRAND FORKS ND
100 PM CDT WED MAY 06 2015

 **SATELLITE DATA USED TO AUGMENT SKY COVER AT AUTOMATED STATIONS**
 *****  WEATHER ACROSS EASTERN NORTH DAKOTA  *****

CITY           SKY/WX    TMP DP  RH WIND       PRES   REMARKS
GRAND FORKS    CLOUDY    61  59  93 S14G23    29.85F
6HR MIN TEMP:  59; 6HR MAX TEMP:  61; 6HR PCP:  0.07;

GRAND FRKS AFB LGT RAIN  59  57  94 SE12      29.85F
GRAND FRKS NWS   N/A     59 N/A N/A SE15        N/A
DEVILS LAKE    CLOUDY    57  54  88 SE13      29.80F
6HR MIN TEMP:  55; 6HR MAX TEMP:  59; 6HR PCP:  0.02;

FARGO          LGT RAIN  63  59  87 SE17      29.85F
WAHPETON ARPT  CLOUDY    63  57  82 SE15G22   29.86F
$$

 ***** WEATHER ACROSS CENTRAL AND WESTERN NORTH DAKOTA  *****

CITY           SKY/WX    TMP DP  RH WIND       PRES   REMARKS
BISMARCK       CLOUDY    63  61  93 SE18      29.71F
6HR MIN TEMP:  59; 6HR MAX TEMP:  63; 6HR PCP:  0.10;

MINOT          RAIN      61  58  90 E9        29.72F FOG
6HR MIN TEMP:  59; 6HR MAX TEMP:  63; 6HR PCP:  0.10;

JAMESTOWN      CLOUDY    62  59  90 SE17G26   29.78F FOG
6HR MIN TEMP:  56; 6HR MAX TEMP:  62; 6HR PCP:  0.02;

MINOT AFB      NOT AVBL
GARRISON         N/A     59  57  93 SE6       29.71F
WILLISTON      RAIN      59  57  93 SE6       29.71S FOG
6HR MIN TEMP:  58; 6HR MAX TEMP:  63; 6HR PCP:  0.18;

DICKINSON      LGT RAIN  61  56  83 SE8       29.68F
6HR MIN TEMP:  55; 6HR MAX TEMP:  61; 6HR PCP:  0.04;

HETTINGER      CLOUDY    59  55  87 SE7       29.69F
6HR MIN TEMP:  55; 6HR MAX TEMP:  60; 6HR PCP:  0.01;

$$

 *****  OTHER AIRPORT OBSERVATIONS IN OUR AREA  *****

CITY           SKY/WX    TMP DP  RH WIND       PRES   REMARKS
WALHALLA       MOCLDY    59  59 100 SE8G18    29.85F FOG
GRAFTON AIRPOR LGT RAIN  59  59 100 SE12      29.86F
VALLEY CITY AR CLOUDY    57  57 100 SE17      29.83F FOG
CANDO          CLOUDY    57  57 100 SE14G21   29.81F FOG
CAVALIER APRT  LGT RAIN  59  59 100 S10G17    29.86S
GWINNER        CLOUDY    61  61 100 SE20      29.83F
SHEYENNE NWR     N/A     61  60  96 SE12      29.95S
ROLLA          NOT AVBL
 ***** THE ABOVE OBSERVATIONS ARE NON NWS ARE NOT QUALITY
       CONTROLLED AND MAY MIS-REPORT RAIN FOR SNOW...
$$

  *****  WEATHER ACROSS NORTHERN MINNESOTA  *****

CITY           SKY/WX    TMP DP  RH WIND       PRES   REMARKS
FLAG ISLAND    FAIR      57  48  72 SE9       29.95S
WARROAD        FAIR      64  55  72 SE9       29.93F
ROSEAU         FAIR      72  55  56 S13       29.90F
HALLOCK        LGT RAIN  64  61  88 S14       29.87F
THF RVR FALLS  PTSUNNY   64  57  77 S12       29.90F
6HR MIN TEMP:  57; 6HR MAX TEMP:  70;

BAUDETTE       FAIR      59  52  77 SE16      29.96F
6HR MIN TEMP:  50; 6HR MAX TEMP:  60; 6HR PCP:  0.08;

WASKISH        FAIR      68  55  64 CALM      29.94F
CROOKSTON      FAIR      63  61  94 SE17      29.88F
$$
  *****  WEATHER ACROSS CENTRAL AND WEST MINNESOTA  *****

CITY           SKY/WX    TMP DP  RH WIND       PRES   REMARKS
FOSSTON        FAIR      64  54  68 SE9       29.91F
BEMIDJI        FAIR      63  55  73 SE13      29.94F
PARK RAPIDS    CLOUDY    62  54  74 SE10      29.94F
6HR MIN TEMP:  58; 6HR MAX TEMP:  62;

ELBOW LAKE     CLOUDY    63  58  84 SE18      29.88F
6HR MIN TEMP:  55; 6HR MAX TEMP:  63; 6HR PCP:  0.01;

WADENA         CLOUDY    57  55  94 E13       29.93F FOG
DETROIT LAKES  CLOUDY    61  55  82 SE14      29.91F
MOORHEAD       LGT RAIN  63  57  82 SE12      29.87F
FERGUS FALLS   FAIR      63  61  94 SE16      29.88F
MORRIS MN      FAIR      63  59  88 SE17      29.86F FOG
STAPLES        CLOUDY    57  54  88 SE9       29.95F FOG
$$
  *****  WEATHER ELSEWHERE ACROSS MINNESOTA  *****

CITY           SKY/WX    TMP DP  RH WIND       PRES   REMARKS
DULUTH         CLOUDY    55  47  74 E8        30.07F
6HR MIN TEMP:  45; 6HR MAX TEMP:  55; 6HR PCP:  0.15;

INTRNTL FALLS  PTSUNNY   61  52  72 SE9       30.00F
6HR MIN TEMP:  47; 6HR MAX TEMP:  62; 6HR PCP:  0.12;

ELY            RAIN      55  50  82 S3        30.08R
CLOQUET        FAIR      57  46  67 E12       30.06F
WHEATON        LGT RAIN  61  57  88 E17       29.86F
BRAINERD       FAIR      61  53  75 VRB6      29.98F
6HR MIN TEMP:  55; 6HR MAX TEMP:  62;

HIBBING        CLOUDY    57  50  77 SE12      30.05F
6HR MIN TEMP:  48; 6HR MAX TEMP:  57; 6HR PCP:  0.04;

ALEXANDRIA     CLOUDY    61  56  83 E15       29.92F
6HR MIN TEMP:  54; 6HR MAX TEMP:  61;

SAINT CLOUD    FAIR      65  56  72 E9        29.96F
6HR MIN TEMP:  55; 6HR MAX TEMP:  65;

MINNEAPOLIS    CLOUDY    65  58  78 E16       29.99F
6HR MIN TEMP:  56; 6HR MAX TEMP:  65; 6HR PCP: TRACE;

$$

  *****  WEATHER ACROSS SOUTH DAKOTA  *****

CITY           SKY/WX    TMP DP  RH WIND       PRES   REMARKS
SIOUX FALLS    CLOUDY    66  60  81 SE20G29   29.78F
6HR MIN TEMP:  62; 6HR MAX TEMP:  67; 6HR PCP:  0.04;

BROOKINGS      CLOUDY    64  61  88 SE22      29.78F
WATERTOWN      CLOUDY    65  60  84 E15G21    29.79F
6HR MIN TEMP:  59; 6HR MAX TEMP:  65; 6HR PCP:  0.09;

HURON          LGT RAIN  63  62  97 SE20G28   29.71F FOG
6HR MIN TEMP:  62; 6HR MAX TEMP:  64; 6HR PCP:  0.39;

SISSETON         N/A     62  62 100 SE15      29.82F
ABERDEEN       LGT RAIN  65  62  90 SE12G21   29.75F FOG
6HR MIN TEMP:  60; 6HR MAX TEMP:  66; 6HR PCP:  0.15;

MITCHELL       CLOUDY    65  62  90 SE23G32   29.71F
PIERRE         CLOUDY    66  57  72 SE16      29.67F
6HR MIN TEMP:  59; 6HR MAX TEMP:  68; 6HR PCP: TRACE;

MOBRIDGE       CLOUDY    68  60  75 S12       29.67F
RAPID CITY     CLOUDY    61  55  81 W5        29.66F
6HR MIN TEMP:  53; 6HR MAX TEMP:  61; 6HR PCP:  0.18;

$$

  *****  SOME WEATHER IN NEARBY STATES *****

CITY           SKY/WX    TMP DP  RH WIND       PRES   REMARKS
GLASGOW MT     CLOUDY    52  42  69 NW21G26   29.79S
6HR MIN TEMP:  50; 6HR MAX TEMP:  53; 6HR PCP: TRACE;

GREAT FALLS MT MOSUNNY   53  32  44 NE9G20    29.93F
6HR MIN TEMP:  39; 6HR MAX TEMP:  53;

CHEYENNE WY    CLOUDY    54  45  71 N16       29.71F
6HR MIN TEMP:  47; 6HR MAX TEMP:  54; 6HR PCP:  0.26;

SCOTTSBLUFF NE CLOUDY    59  51  75 SE7       29.66S
6HR MIN TEMP:  53; 6HR MAX TEMP:  60; 6HR PCP:  0.01;

OMAHA NE       PTSUNNY   71  60  68 S25G33    29.84F
6HR MIN TEMP:  63; 6HR MAX TEMP:  73; 6HR PCP:  0.06;

DES MOINES IA  CLOUDY    76  59  55 S22G29    29.94F
6HR MIN TEMP:  66; 6HR MAX TEMP:  76;

DAVENPORT IA   FAIR      80  58  46 S15G23    30.07F
6HR MIN TEMP:  56; 6HR MAX TEMP:  80;

CHICAGO IL     MOSUNNY   73  60  63 SE5       30.14F
6HR MIN TEMP:  49; 6HR MAX TEMP:  73;

EAU CLAIRE WI  FAIR      64  58  80 E9        30.06F
6HR MIN TEMP:  54; 6HR MAX TEMP:  64; 6HR PCP:  0.03;

LA CROSSE WI   FAIR      73  60  63 VRB6      30.05F
6HR MIN TEMP:  56; 6HR MAX TEMP:  74; 6HR PCP: TRACE;

$$

  *****  SOME NATIONAL WEATHER *****

CITY           SKY/WX    TMP DP  RH WIND       PRES   REMARKS
LA GUARDIA NY  CLOUDY    64  40  41 NE8       30.27F
6HR MIN TEMP:  59; 6HR MAX TEMP:  67; 6HR PCP: TRACE;

RALEIGH NC     PTSUNNY   80  56  43 E6        30.19F
6HR MIN TEMP:  61; 6HR MAX TEMP:  80;

ATLANTA GA     MOSUNNY   79  53  40 SE8       30.18F
6HR MIN TEMP:  64; 6HR MAX TEMP:  79;

NEW ORLEANS LA PTSUNNY   84  62  47 SE12      30.07F
6HR MIN TEMP:  70; 6HR MAX TEMP:  84;

OKLAHOMA CITY  CLOUDY    75  67  76 S22G30    29.88F
6HR MIN TEMP:  67; 6HR MAX TEMP:  75;

ALBUQUERQUE NM PTSUNNY   65  43  44 SW13      29.94F
6HR MIN TEMP:  52; 6HR MAX TEMP:  65;

SALT LAKE CITY PTSUNNY   64  45  49 SW9       29.76F
6HR MIN TEMP:  54; 6HR MAX TEMP:  64;

LOS ANGELES CA CLOUDY    61  49  64 W9        29.91S
6HR MIN TEMP:  59; 6HR MAX TEMP:  62;




USA.gov is the U.S. government's official web portal to all federal, state and local government web resources and services.